Flag Weather past 2 weeks in Bad Hersfeld, Hesse, Germany

Now
32 °F

Passing clouds.


Feels Like: 32 °F
Forecast: 31 / 41 °F
Wind: 1 mph from Northwest

Location: Fritzlar Airport

Current Time: Nov 27, 2014 at 8:16:59 AM

Latest Report: Nov 27, 2014 at 7:20 AM


Visibility: 0 mi

Pressure: 29.89 "Hg

Humidity: 100%

Dew point: 32 °F

Location of Bad HersfeldLocation

Historic Weather in Bad Hersfeld — Graph

°F

Bad Hersfeld temperature yesterday

Maximum temperature yesterday: 39 °F (at 12:20 AM)
Minimum temperature yesterday: 32 °F (at 7:20 AM)
Average temperature yesterday: 37 °F

Past Weeks' High & Low Weather Summary

 TemperatureHumidityPressure
High54 °F (Nov 14, 12:20 PM)100% (Nov 12, 9:20 AM)30.36 "Hg (Nov 12, 9:20 AM)
Low28 °F (Nov 25, 1:20 AM)62% (Nov 24, 2:20 PM)29.50 "Hg (Nov 16, 4:20 AM)
Average43 °F90%29.98 "Hg
* Reported Nov 12 6:20 AM — Nov 27 6:20 AM, Bad Hersfeld, Weather by CustomWeather, © 2014

Note: Actual official high and low records may vary slightly from our data, if they occured in-between our weather recording intervals... More about our weather records

Advertising

Bad Hersfeld weather history for previous 24 hours

 ConditionsComfort  
Time TempWeatherWind HumidityBarometerVisibility
6:20 AM
Nov 27
32 °FFog.1 mph100%29.89 "Hg4 mi
5:47 AM32 °FIce fog.1 mph100%29.89 "Hg3 mi
5:20 AM32 °FIce fog.1 mph100%29.92 "Hg1 mi
4:48 AM32 °FIce fog.1 mph93%29.92 "Hg0 mi
4:20 AM32 °FIce fog.2 mph100%29.92 "Hg3 mi
3:49 AM32 °FIce fog.1 mph100%29.92 "Hg3 mi
3:20 AM32 °FIce fog.2 mph100%29.92 "Hg1 mi
3:03 AM32 °FIce fog.2 mph100%29.92 "Hg1 mi
3:00 AM32 °FIce fog.2 mph100%29.92 "Hg1 mi
2:20 AM34 °FFog.2 mph93%29.95 "Hg5 mi
1:20 AM36 °FFog.1 mph93%29.95 "HgN/A
12:20 AM36 °FPartly cloudy.2 mph93%29.98 "HgN/A
11:20 PM
Nov 26
36 °FPassing clouds.2 mph93%29.98 "HgN/A
10:20 PM36 °FPassing clouds.1 mph93%29.98 "HgN/A
9:20 PM37 °FPassing clouds.2 mph87%30.01 "HgN/A
8:20 PM37 °FPassing clouds.2 mph87%30.01 "HgN/A
7:20 PM37 °FPassing clouds.3 mph81%30.01 "HgN/A
6:20 PM37 °FPassing clouds.5 mph81%30.01 "HgN/A
5:20 PM37 °FPartly cloudy.6 mph81%30.04 "HgN/A
4:20 PM39 °FBroken clouds.6 mph75%30.04 "HgN/A
4:02 PM39 °FBroken clouds.6 mph75%30.04 "HgN/A
3:20 PM39 °FBroken clouds.7 mph75%30.04 "HgN/A
2:20 PM39 °FBroken clouds.6 mph75%30.04 "HgN/A
1:20 PM37 °FScattered clouds.7 mph81%30.07 "HgN/A
12:20 PM39 °FScattered clouds.6 mph75%30.07 "HgN/A
11:20 AM39 °FPartly sunny.7 mph75%30.09 "HgN/A
10:20 AM39 °FPartly sunny.3 mph75%30.12 "HgN/A
9:20 AM36 °FPartly sunny.6 mph87%30.12 "HgN/A
8:20 AM32 °FScattered clouds.2 mph93%30.12 "HgN/A
Weather by CustomWeather, © 2014

See weather overviewHow to use our weather pages